User: anonymous   Login
Location: Chanteloup
(48.8560°N, 2.7390°E)
Time: 02:44:31
(UTC+00:00)
Language:

Cosmos 1758 Rocket - Orbit

View from above orbital plane
View from above orbital plane
View from above satellite
View from above satellite

Ground track
Ground track

The orbit data is extracted from the following two-line orbital elements,

1 16792U 86046B   22018.54622014  .00000206  00000-0  22097-4 0  9998
2 16792  82.4813  64.8100 0024440 169.3523 190.8215 14.83329876902238
Epoch (UTC): 18 January 2022 13:06:33
Eccentricity: 0.0024440
inclination: 82.4813°
perigee height: 602 km
apogee height: 636 km
right ascension of ascending node: 64.8100°
argument of perigee: 169.3523°
revolutions per day: 14.83329876
mean anomaly at epoch: 190.8215°
orbit number at epoch: 90223

The dashed part of the orbit path shows where the satellite is in the earth's shadow,  

DLR